KUIPER-00043 (64504 NORAD) Tracking and Keplerian Element Data

This shows tracking and keplerian element data for the satellite.

Feedback or suggestion? Click here.




ElementValue
Catalog64504
NameKUIPER-00043
Epoch Orbit2825
Epoch Day353.94334861
Epoch Year2025
RAAN226.6799
Inclination51.9018
Eccentricity0.0003593
Argument of Perigee43.3049
Mean Anonmoly316.8195
Mean Motion14.79897655
Decay Rate-6.925E-05
L11 64504U 25134E 25353.94334861 -.00006925 00000+0 -88084-3 0 9994
L22 64504 51.9018 226.6799 0003593 43.3049 316.8195 14.79897655 28250



Live tracking and technical data element details for KUIPER-00043 (NORAD 64504). KUIPER-00043 can be tracked NOW for your location showing map with azimuth and elevation plus other details from your city location.







IsCatalogInMostPopularTable: catalog: 64504, numindb: 4
Update: records affected: 1



GetName: 64504 KUIPER-00043

Hit Count: updated at: Mon, 20 Apr 2026 09:05:02 GMT